CAPE
1 1 1 1 1 3 0 4 0 0 1 1 0 1 1 1 1 1 0 0 0 2 0 0 0 0 0 0 0 0 0 0 10 0 0 0 0 0 0 0 0 16 144 242 759 850 881
1 1 1 1 1 1 1 1 1 1 1 1 1 1 1 1 1 0 0 0 0 2 1 0 0 0 0 0 0 0 0 0 0 0 0 0 0 0 0 0 0 0 154 147 572 650 714
1 1 1 1 1 1 1 4 1 1 1 2 1 1 1 1 1 0 0 1 2 1 0 0 0 0 0 0 0 0 0 0 0 0 0 0 0 0 0 0 0 144 166 446 853 918 1053
3 1 1 1 1 1 1 3 4 1 1 1 1 1 0 1 1 1 1 2 2 0 0 0 0 0 0 0 0 0 0 0 0 0 0 0 0 0 0 0 0 140 101 190 400 883 1012
1 2 1 1 1 1 1 1 3 1 1 1 2 1 2 5 1 2 1 2 0 0 0 0 0 0 0 0 0 0 0 0 0 0 0 0 0 0 0 0 3 1 177 112 385 635 1078
1 2 1 1 1 1 1 1 1 1 1 1 1 4 4 4 2 1 1 0 0 0 0 0 0 0 0 0 0 0 0 0 0 0 0 0 0 0 0 0 2 89 151 33 353 422 485
0 1 1 1 1 1 1 1 1 1 1 1 2 1 1 1 1 1 0 0 0 0 0 0 0 0 0 0 0 0 0 0 0 0 0 0 0 0 0 0 0 0 0 67 55 328 228
1 4 1 1 1 1 1 1 1 1 3 1 1 1 1 1 2 0 0 0 0 0 0 0 0 0 0 0 0 0 0 0 0 0 0 0 0 0 0 0 0 0 0 0 0 122 320
1 3 4 1 5 4 6 8 7 7 5 5 4 3 0 0 2 0 0 0 0 0 0 0 0 0 0 0 0 0 0 0 0 0 0 0 0 0 0 0 0 0 0 0 0 86 66
2 2 3 4 7 7 8 8 7 8 6 7 5 2 1 1 0 0 0 0 0 0 0 0 0 0 0 0 0 0 0 0 0 0 0 0 0 0 0 0 0 10 0 0 76 120 92
2 3 4 7 4 10 5 5 9 9 9 1 1 2 1 2 0 0 0 0 0 0 0 0 0 0 0 0 0 0 0 0 0 0 0 0 0 0 0 0 0 15 0 0 23 0 20
1 1 4 5 5 7 6 7 2 7 1 0 1 2 1 0 0 0 0 0 0 0 0 0 0 0 0 0 0 0 0 0 0 0 0 0 0 0 0 0 0 0 0 0 0 0 0
2 1 2 2 3 5 5 7 7 4 0 0 0 1 2 0 0 0 0 0 0 0 0 0 0 0 0 0 0 0 0 0 0 0 0 0 0 0 0 0 0 0 0 0 0 0 0
3 3 4 2 3 3 5 6 4 5 0 0 0 0 0 0 0 0 0 0 0 0 0 0 0 0 0 0 0 0 0 0 0 0 0 0 0 0 0 0 0 0 0 0 0 0 0
0 3 4 1 2 3 5 4 2 3 0 0 0 0 0 0 0 0 0 0 0 0 0 0 0 0 0 0 0 0 0 0 0 0 0 0 0 0 0 0 0 0 0 0 0 0 0
0 3 3 2 2 2 4 4 3 4 0 1 0 0 0 0 0 0 0 0 0 0 0 0 0 0 0 0 0 0 0 0 0 0 0 0 0 0 0 0 0 0 0 0 0 0 0
0 3 1 2 2 3 4 4 2 4 1 0 0 0 0 0 0 0 0 0 0 0 0 0 0 0 0 0 0 0 0 0 0 0 0 0 0 0 0 0 0 0 0 0 0 0 0
0 0 1 1 1 3 4 3 1 0 0 0 0 0 0 0 0 0 0 0 0 0 0 0 0 0 0 0 0 0 0 0 0 0 0 0 0 0 0 0 0 0 0 0 0 0 0
0 0 0 1 1 3 4 1 0 0 0 1 0 0 0 0 0 0 0 0 0 0 0 0 0 0 0 0 0 0 0 0 0 0 0 0 0 0 0 0 0 0 0 0 0 0 0
0 0 0 0 1 4 3 0 0 0 0 0 0 0 0 0 0 0 0 0 0 0 0 0 0 0 0 0 0 0 0 0 0 0 58 1 0 0 0 0 0 0 0 0 0 0 0
0 1 0 0 0 2 4 0 0 0 0 0 0 10 0 0 0 0 0 0 0 0 0 0 2 0 0 0 0 0 0 0 0 71 0 0 0 0 0 0 0 0 0 0 0 0 0
0 1 0 0 0 2 3 1 0 0 0 0 0 0 0 0 0 2 0 1 0 0 0 14 23 0 0 0 0 0 0 0 0 0 0 0 0 0 0 0 0 0 0 0 0 0 0
1 1 1 0 0 0 1 2 0 0 0 0 0 0 0 0 0 14 7 0 11 0 43 79 42 0 0 0 0 0 0 0 0 0 0 0 0 0 0 0 0 0 0 0 0 0 0
1 0 2 0 0 0 1 3 3 0 1 0 0 0 0 0 3 31 67 54 30 22 79 42 2 0 0 0 0 0 0 0 0 0 0 0 0 0 3 0 0 0 0 0 0 0 1
3 2 2 0 0 0 0 2 2 2 0 0 0 0 0 0 0 26 50 1 7 0 147 47 0 0 0 0 0 0 0 0 0 0 0 0 0 0 0 0 0 0 0 2 1 42 19
4 2 1 0 0 0 0 2 1 2 0 0 0 0 0 0 0 13 2 0 3 35 8 54 2 0 0 0 0 0 0 0 4 0 0 0 0 0 0 0 0 0 0 0 0 0 40
4 2 1 0 0 0 0 2 1 1 0 0 0 0 0 0 0 0 0 0 0 31 48 15 67 18 0 0 0 0 0 0 0 0 0 0 0 0 0 0 0 0 0 0 0 0 104
1 1 0 0 0 0 0 0 1 0 0 0 0 0 0 0 0 0 0 0 0 17 177 31 10 7 1 0 0 0 0 0 0 0 0 0 0 0 0 0 0 0 0 0 0 0 85
1 1 0 0 0 0 0 0 0 0 0 0 0 0 0 0 0 0 0 0 0 0 0 0 18 3 13 0 0 0 0 0 0 25 0 1 0 0 0 0 0 0 0 0 0 0 0
CIN
0 0 0 0 0 0 0 0 0 0 0 0 0 0 0 0 0 0 0 0 0 0 0 0 0 0 0 0 0 0 0 0 -379 0 0 0 0 0 0 0 0 -64 -81 -122 -165 -132 -133
0 0 0 0 0 0 0 0 -1 0 0 0 0 0 0 0 0 0 0 0 0 0 0 0 0 0 0 0 0 0 0 0 0 0 0 0 0 0 0 0 0 0 -97 -132 -159 -139 -137
0 0 0 0 0 0 0 0 -1 0 0 0 0 0 0 0 0 0 0 0 0 0 0 0 0 0 0 0 0 0 0 0 0 0 0 0 0 0 0 0 0 -124 -110 -98 -118 -137 -137
-1 0 0 0 0 0 0 0 0 0 0 0 0 0 0 0 0 0 0 0 0 0 0 0 0 0 0 0 0 0 0 0 0 0 0 0 0 0 0 0 0 -117 -141 -75 -126 -132 -162
0 0 -1 0 0 0 0 0 0 0 0 0 0 0 0 0 0 0 0 0 0 0 0 0 0 0 0 0 0 0 0 0 0 0 0 0 0 0 0 0 -35 -8 -81 -117 -127 -169 -143
0 0 0 0 0 0 0 0 0 -1 0 0 0 0 0 0 0 0 0 0 0 0 0 0 0 0 0 0 0 0 0 0 0 0 0 0 0 0 0 0 -21 -74 -72 -122 -120 -156 -196
0 0 0 0 0 0 0 0 0 0 0 0 0 0 0 0 0 0 0 0 0 0 0 0 0 0 0 0 0 0 0 0 0 0 0 0 0 0 0 0 0 0 0 -90 -129 -140 -167
0 0 0 0 0 0 0 0 0 0 0 0 0 0 0 0 0 0 0 0 0 0 0 0 0 0 0 0 0 0 0 0 0 0 0 0 0 0 0 0 0 0 0 0 0 -159 -164
0 0 0 0 0 0 0 0 0 0 0 0 0 0 0 0 -1 0 0 0 0 0 0 0 0 0 0 0 0 0 0 0 0 0 0 0 0 0 0 0 0 0 0 0 0 -184 -232
0 0 0 0 0 0 0 0 0 0 0 0 0 0 0 -1 0 0 0 0 0 0 0 0 0 0 0 0 0 0 0 0 0 0 0 0 0 0 0 0 0 -73 0 0 -204 -150 -114
0 0 0 0 0 0 0 0 0 0 0 0 0 0 -1 -4 0 0 0 0 0 0 0 0 0 0 0 0 0 0 0 0 0 0 0 0 0 0 0 0 0 -60 0 0 -129 0 -30
0 0 0 0 0 0 0 0 0 0 0 0 0 0 -2 0 0 0 0 0 0 0 0 0 0 0 0 0 0 0 0 0 0 0 0 0 0 0 0 0 0 0 0 0 0 0 0
0 0 0 0 0 0 0 0 0 0 0 0 0 -2 -1 0 0 0 0 0 0 0 0 0 0 0 0 0 0 0 0 0 0 0 0 0 0 0 0 0 0 0 0 0 0 0 0
0 0 0 0 0 0 0 0 0 0 0 0 0 -1 -1 0 0 0 0 0 0 0 0 0 0 0 0 0 0 0 0 0 0 0 0 0 0 0 0 0 0 0 0 0 0 0 0
0 0 0 0 0 0 0 0 0 0 0 0 0 0 0 0 0 0 0 0 0 0 0 0 0 0 0 0 0 0 0 0 0 0 0 0 0 0 0 0 0 0 0 0 0 0 0
0 0 0 0 0 0 0 0 0 0 0 0 0 0 0 0 0 0 0 0 0 0 0 0 0 0 0 0 0 0 0 0 0 0 0 0 0 0 0 0 0 0 0 0 0 0 0
0 0 0 0 0 0 0 0 0 0 0 0 0 0 0 0 0 0 0 0 0 0 0 0 0 0 0 0 0 0 0 0 0 0 0 0 0 0 0 0 0 0 0 0 0 0 0
0 0 0 0 0 0 0 0 0 0 0 0 0 0 0 0 0 0 0 0 0 0 0 0 0 0 0 0 0 0 0 0 0 0 0 0 0 0 0 0 0 0 0 0 0 0 0
0 0 0 0 0 0 0 0 0 0 0 0 0 0 0 0 0 0 0 0 0 0 0 0 0 0 0 0 0 0 0 0 0 0 0 0 0 0 0 0 0 0 0 0 0 0 0
0 0 0 0 0 0 0 0 0 0 -1 0 0 0 0 0 0 0 0 0 0 0 0 0 0 0 0 0 0 0 0 0 0 0 -241 -271 0 0 0 0 0 0 0 0 0 0 0
0 -1 0 0 0 0 0 0 0 0 0 0 0 -125 0 0 0 0 0 0 0 0 0 0 -115 0 0 0 0 0 0 0 0 -510 0 0 0 0 0 0 0 0 0 0 0 0 0
0 0 0 0 0 0 0 0 0 0 0 0 0 0 0 0 0 -218 0 -474 0 0 0 -236 -233 0 0 0 0 0 0 0 0 0 0 0 0 0 0 0 0 0 0 0 0 0 0
0 0 0 0 0 0 0 0 0 0 0 0 0 0 0 0 0 -385 -90 0 -311 0 -255 -300 -360 0 0 0 0 0 0 0 0 0 0 0 0 0 0 0 0 0 0 0 0 0 0
0 0 0 0 0 0 0 0 0 0 0 0 0 0 0 0 -440 -323 -314 -389 -467 -272 -249 -395 -257 0 0 0 0 0 0 0 0 0 0 0 0 0 -196 0 0 0 0 0 0 0 -68
-6 -1 0 0 0 0 0 0 0 -1 0 0 0 0 0 0 0 -333 -344 -75 -477 -89 -210 -229 0 0 0 0 0 0 0 0 0 0 0 0 0 0 0 0 0 0 0 -66 -10 -121 -59
0 0 0 0 0 0 0 0 0 0 0 0 0 0 0 0 0 -198 -115 0 -368 -350 -281 -283 -41 0 0 0 0 0 0 0 -53 0 0 0 0 0 0 -34 0 0 0 0 0 -13 -65
0 0 0 0 0 0 0 0 0 0 0 0 0 0 0 0 0 0 0 0 0 -472 -338 -442 -389 -171 0 0 0 0 0 0 0 0 0 0 0 0 0 0 0 0 0 0 0 0 -410
0 0 0 0 0 0 0 0 0 0 0 0 0 0 0 0 0 0 0 0 0 -397 -262 -455 -207 -200 -212 0 0 0 0 0 0 0 0 0 0 0 0 0 0 0 0 0 0 0 -465
0 0 0 0 0 0 0 0 0 0 0 0 0 0 0 0 0 0 0 0 0 0 0 -54 -585 -248 -336 -19 0 0 0 0 0 -170 0 -35 0 0 0 0 0 0 0 0 0 0 0
Wind_Speed
14 13 13 13 13 13 14 13 14 13 13 14 15 15 15 16 17 16 16 15 16 16 16 16 15 16 5 3 10 1 6 7 3 5 3 1 3 4 3 3 3 3 3 5 9 9 9
14 14 14 14 14 13 14 14 14 14 14 14 15 15 16 17 17 16 16 15 16 16 15 14 14 14 2 4 3 5 8 7 2 3 2 1 2 1 2 1 1 3 10 7 6 7 5
14 14 14 14 14 14 14 14 15 15 15 15 16 16 16 17 18 17 17 16 16 16 14 11 10 4 1 15 1 7 4 3 2 3 3 4 3 2 2 4 4 6 8 7 5 4 3
15 15 14 14 14 14 14 14 14 15 15 15 16 17 17 18 19 18 18 18 18 16 12 9 5 1 8 5 3 9 2 5 4 4 3 6 3 3 3 3 6 5 6 5 4 5 4
15 15 15 14 14 15 15 15 14 15 15 16 16 17 18 18 19 19 19 21 18 11 6 4 2 2 11 9 3 5 6 4 2 0 4 0 3 4 5 4 5 6 4 1 3 7 5
16 16 15 15 15 15 15 15 15 15 16 16 16 16 17 18 19 18 22 15 3 3 1 3 3 3 5 2 4 5 2 1 2 4 5 7 6 4 4 6 3 4 3 3 6 8 5
17 17 17 16 16 16 16 16 16 16 16 16 17 17 17 18 18 16 11 3 4 2 1 10 6 4 5 9 4 3 1 4 3 8 4 4 6 3 4 6 5 2 4 6 4 6 5
17 17 17 17 17 16 16 17 17 17 17 17 17 18 18 18 17 14 2 3 2 3 6 9 6 7 4 2 5 4 1 5 4 3 3 6 3 4 3 4 2 3 4 6 3 5 9
17 17 16 17 16 16 16 16 16 16 16 17 16 18 19 19 18 1 2 4 4 2 1 8 6 5 5 9 7 7 7 4 4 5 4 5 4 2 1 2 1 3 5 3 2 5 3
16 16 16 16 16 16 16 17 17 17 17 17 17 18 18 21 2 3 4 1 6 6 5 8 4 7 5 6 4 6 6 7 2 11 8 5 3 2 3 2 5 4 3 3 10 6 6
15 15 16 15 17 16 17 18 18 18 18 19 18 17 15 7 5 2 0 7 2 3 3 2 4 1 0 9 3 3 5 5 8 7 7 6 4 2 2 4 5 7 2 1 6 4 6
15 16 16 16 17 17 18 18 20 19 21 20 18 16 10 0 3 7 6 6 3 8 5 3 4 4 4 1 1 2 3 4 4 4 3 4 2 4 7 2 6 2 4 6 6 4 2
14 16 15 16 17 17 17 18 19 21 23 22 20 11 4 2 4 3 5 3 7 4 6 2 3 4 3 4 1 2 5 4 5 6 3 5 4 4 3 3 3 5 6 4 4 5 6
13 14 14 15 16 18 18 19 20 21 24 24 21 10 6 5 3 5 2 7 2 4 6 5 2 2 6 4 3 2 5 4 2 6 4 4 3 4 2 6 5 3 5 7 5 3 5
14 13 14 15 16 18 19 20 20 22 25 26 16 0 2 5 11 3 6 4 7 5 4 8 5 4 3 1 3 3 6 8 9 7 7 5 5 4 3 1 6 5 3 4 8 3 3
14 13 14 15 16 17 19 20 22 23 26 25 2 2 3 3 8 3 6 5 4 4 5 5 4 2 2 2 4 4 5 5 6 10 4 6 0 2 3 3 5 3 6 4 3 3 3
12 12 13 14 15 17 19 21 22 24 28 15 1 3 4 2 1 6 4 7 5 6 3 3 1 3 4 3 5 6 5 5 8 6 6 5 4 5 3 2 1 4 2 6 6 5 6
11 13 12 13 15 17 19 21 22 23 24 5 1 4 2 1 5 1 4 5 4 4 3 7 2 8 7 7 4 6 11 10 9 11 10 7 6 2 5 3 5 3 3 5 7 4 1
9 9 10 12 14 17 19 20 21 22 20 2 3 1 2 3 3 1 3 3 4 4 5 3 5 8 3 5 3 8 7 7 11 9 11 9 1 3 9 7 3 1 2 5 6 4 5
9 9 9 11 13 16 18 19 21 21 17 2 2 3 4 4 0 5 1 4 4 4 6 6 5 0 1 4 5 5 3 1 9 11 13 10 4 8 10 9 5 4 5 5 5 4 6
9 9 9 10 13 16 17 18 19 21 13 1 3 0 2 2 4 3 3 4 6 3 4 2 3 2 0 5 4 7 5 2 5 5 5 7 6 4 2 2 4 3 4 5 5 4 6
9 9 8 9 11 14 15 17 19 22 11 2 2 2 4 1 1 1 5 5 6 5 5 5 1 7 1 5 5 4 5 3 6 3 4 3 2 4 2 2 3 1 1 4 4 2 4
9 8 8 8 9 12 14 15 17 18 11 3 3 2 3 3 0 2 5 4 6 5 6 3 5 5 6 5 5 5 4 3 6 9 5 5 7 4 2 4 4 4 4 6 3 5 7
9 8 7 7 8 10 13 13 13 12 11 1 2 1 2 4 1 5 2 3 8 5 4 3 9 4 2 8 4 3 4 7 12 9 6 7 6 3 4 2 1 7 4 5 4 1 5
10 8 7 5 7 8 11 12 12 11 10 1 2 1 2 4 3 7 4 3 4 5 2 3 5 7 1 6 3 5 7 7 8 9 8 5 6 5 6 4 5 2 3 2 2 4 4
11 9 7 4 5 6 9 11 12 11 11 2 2 1 1 2 5 3 3 4 1 3 6 5 6 3 7 5 3 3 5 4 1 3 6 6 8 6 2 6 7 8 2 3 5 5 5
11 9 7 4 3 5 7 10 12 12 11 1 2 2 1 1 5 2 3 2 1 2 2 4 7 5 2 3 4 4 3 2 5 6 5 3 4 5 3 2 6 6 4 5 5 10 3
10 8 7 5 4 4 6 8 10 12 13 4 3 1 2 2 8 5 4 2 2 2 2 2 1 1 2 4 5 4 2 3 1 2 4 6 6 3 4 3 5 2 4 8 7 1 4
9 8 7 7 5 3 5 7 8 9 11 6 2 2 1 3 8 3 8 7 7 7 3 2 3 5 4 3 3 1 0 1 3 3 3 1 4 7 8 8 3 3 3 2 5 6 6
Wind_Direction
4 4 2 360 357 356 353 351 350 349 348 348 347 344 342 338 336 329 324 321 320 319 319 322 326 328 347 9 251 308 25 349 204 150 186 158 9 22 360 297 310 158 68 52 101 114 117
2 2 1 358 356 354 351 349 347 345 344 345 343 341 340 337 336 329 322 318 314 311 311 317 326 321 12 280 248 44 348 327 306 43 353 171 241 240 259 283 63 75 87 83 90 118 123
1 359 359 356 355 353 350 346 343 342 342 342 340 339 339 337 334 329 321 314 309 306 307 314 325 337 55 236 8 329 307 258 235 144 285 207 195 107 350 345 330 134 93 78 85 116 110
359 358 356 353 350 349 348 345 341 340 339 338 338 338 338 336 334 328 321 311 309 301 302 303 318 304 249 262 316 301 268 292 239 189 217 250 189 124 66 345 19 63 57 117 179 143 184
359 356 353 351 349 348 346 343 341 338 337 336 335 335 335 335 334 329 320 311 303 289 269 305 10 59 269 309 273 282 194 241 305 137 253 43 73 74 35 73 37 16 170 192 163 210 157
0 357 352 350 349 347 343 341 339 335 334 333 333 334 331 335 334 331 322 307 307 85 138 191 271 9 283 300 304 304 167 206 75 329 31 44 43 59 48 58 197 215 143 259 207 207 195
0 359 354 349 347 346 343 340 338 334 332 330 330 330 330 332 333 334 342 38 34 349 260 194 200 234 295 298 306 321 156 105 74 53 52 5 68 218 229 181 163 197 190 194 228 200 161
359 354 356 352 347 344 342 339 336 333 330 329 329 329 329 329 326 318 301 133 122 168 309 233 227 279 285 60 313 291 125 115 106 162 22 19 213 211 231 159 167 197 182 222 243 191 175
356 354 352 352 350 346 343 336 331 329 328 326 324 329 330 327 320 25 228 225 25 348 137 292 193 204 207 144 210 254 144 128 122 124 182 167 238 182 236 12 99 197 203 178 178 137 27
352 352 351 348 342 336 333 331 327 323 320 320 323 326 328 330 319 325 252 287 326 186 54 278 259 266 144 159 250 207 198 135 158 183 165 218 270 302 15 268 155 303 178 126 131 127 200
351 350 347 344 345 339 339 336 328 325 325 329 328 328 329 340 297 224 37 335 313 57 6 229 207 88 211 153 177 236 205 71 163 161 124 234 158 73 320 223 175 232 86 114 159 107 96
348 348 344 343 341 338 340 333 336 329 331 328 325 322 327 6 233 248 317 319 67 45 260 350 135 149 133 358 110 68 122 63 142 125 30 200 252 222 213 159 189 201 111 59 59 83 32
346 344 340 338 337 335 334 332 331 332 331 327 322 304 260 252 230 321 311 64 42 133 324 6 208 158 159 138 188 98 135 135 143 89 15 345 267 275 193 4 15 78 60 353 6 15 221
338 335 337 335 335 334 334 334 332 329 333 329 322 298 210 221 271 343 86 54 128 258 267 301 360 119 157 138 205 154 111 136 69 90 109 143 309 184 164 176 198 93 158 154 201 197 255
336 334 334 334 335 335 334 333 333 331 336 334 320 145 236 248 212 314 80 81 213 214 289 325 315 91 12 52 167 163 168 186 192 164 149 139 273 305 228 126 126 195 182 180 103 11 53
331 332 334 333 335 335 335 336 335 334 339 337 322 338 278 91 152 99 79 219 235 223 320 28 55 13 138 232 150 145 180 201 193 188 144 195 286 279 265 94 63 165 154 78 12 144 242
326 328 329 333 335 335 337 338 337 337 340 337 342 61 329 86 172 53 149 230 264 245 261 340 219 298 226 218 190 183 209 276 188 172 117 131 124 277 35 64 127 323 40 52 112 110 159
326 327 325 332 336 338 338 340 339 340 340 36 14 61 320 106 58 27 156 198 245 272 245 255 237 205 212 174 213 224 206 215 175 143 156 194 139 200 216 283 163 219 166 117 117 225 95
304 310 324 333 337 340 340 341 341 344 349 317 73 125 327 57 127 275 279 283 240 239 237 233 260 212 160 201 211 207 207 217 148 142 162 182 242 35 350 356 9 353 81 90 101 87 187
304 306 323 334 338 342 342 343 343 348 355 18 75 70 339 50 161 131 64 275 261 227 255 208 257 178 149 252 234 258 254 107 180 177 141 97 123 157 192 203 145 188 175 149 129 120 173
305 302 318 333 341 345 344 344 346 348 353 325 33 258 198 219 284 199 146 254 253 268 262 176 302 143 95 295 208 214 226 143 45 116 82 125 157 152 302 189 138 202 197 164 172 180 165
307 308 307 328 343 346 348 348 351 351 355 28 65 42 355 259 313 168 173 238 220 221 213 212 166 321 88 219 256 251 162 196 170 70 98 12 152 111 148 265 119 68 220 172 218 136 298
304 312 305 322 343 348 351 352 356 2 3 40 322 327 110 256 135 137 212 236 271 317 213 199 105 44 0 311 295 325 242 104 176 131 118 101 127 93 225 5 45 2 221 204 196 174 156
301 308 306 316 336 350 351 353 2 9 29 330 267 352 60 278 163 221 245 249 264 253 285 210 87 104 279 310 289 281 13 45 54 43 136 121 94 88 159 38 147 238 296 212 143 303 201
300 298 304 307 327 350 348 351 359 1 359 335 275 73 94 278 244 285 289 266 300 315 231 185 199 178 269 36 20 8 354 13 18 10 30 87 116 86 127 167 271 142 178 160 161 252 198
300 288 293 291 318 342 346 347 353 358 356 82 253 196 98 97 253 300 327 303 325 10 350 325 43 122 91 79 38 218 176 222 179 79 338 54 70 102 137 147 185 221 191 123 116 295 195
290 281 285 271 292 328 344 344 348 354 357 17 274 202 111 237 266 215 218 259 352 78 130 319 332 10 69 67 23 225 214 191 167 185 171 67 40 128 120 183 289 243 177 147 92 239 158
277 270 272 259 264 310 332 339 345 350 356 24 275 226 96 265 276 229 253 199 17 27 103 274 123 245 68 138 227 224 157 245 76 178 197 149 131 139 102 108 255 167 118 149 207 254 150
270 259 259 248 251 277 315 328 339 347 353 28 327 349 23 185 256 283 258 236 195 190 125 328 217 220 198 124 147 154 258 36 113 255 22 298 174 171 170 204 227 272 258 325 156 162 168